CAPE
0 0 0 0 0 0 0 0 0 0 0 0 0 0 0 0 0 0 0 0 0 0 0 0 0 0 69 511 1496 1705 1305 756 636 569 489 656 826 752 862 739 953 1455 1247 1357 1269 1395 1558 1406 1624 1583 1495 1452 1234 1219 1343 1290 1227 1293 1215 1246 1184 1292 1764 1988 1633 2189 2255 1906 1602 1501 1557 1798 1818 1530 1859 1717 1613 1365 1564 1643 1402 1440 1613 1527 1545 1470
0 0 0 0 0 0 0 0 0 0 0 0 0 0 0 0 0 0 0 0 0 0 0 0 0 0 1 236 1252 1482 590 850 875 896 686 582 699 866 1121 862 1290 1158 1135 1112 917 1035 1304 1373 1171 1387 1439 1273 1145 1081 1280 1289 1404 1361 1306 1260 1220 1290 1305 2144 2093 2108 1820 1713 1689 1664 1644 1540 1616 1567 1477 1495 1415 1568 1408 1439 1415 1503 1499 1418 1442 1369
0 0 0 0 0 0 0 0 0 0 0 0 0 0 0 0 0 0 0 0 0 0 0 0 0 0 0 238 1319 1559 828 920 1088 1313 786 514 624 879 876 1021 1013 1047 1115 1126 1089 1092 1564 1261 1137 1014 1040 1156 1198 1080 1317 1409 1421 1346 1400 1051 2024 1958 1951 1979 1911 1685 1766 1726 1670 1653 1633 1589 1509 1438 1313 1426 1386 1449 1446 1412 1345 1304 1225 1281 1235 1263
0 0 0 0 0 0 0 0 0 0 0 0 0 0 0 0 0 0 0 0 0 0 0 0 0 91 1505 1620 1864 1524 1296 1174 1317 1604 1248 869 694 807 960 1076 1047 1249 1008 887 1095 1249 1243 1294 1229 1052 860 546 1034 1044 1226 1122 1219 1490 1213 2074 1790 1650 1787 1931 1764 1511 1688 1714 1673 1726 1728 1483 1521 1370 1323 1441 1268 980 1136 1154 1064 1012 952 824 873 848
0 0 0 0 0 0 0 0 0 0 0 0 0 0 0 0 0 0 0 0 0 0 0 0 0 137 1032 1292 1379 1192 1400 1630 1892 1952 1619 1532 1043 903 1083 1255 1183 1058 904 1096 1094 1300 1341 1286 1153 974 986 1163 980 834 957 1098 1017 1291 1327 1408 1742 1949 1722 1818 1814 1791 1893 1803 1813 1621 1544 1458 1487 1408 1365 1139 1163 879 681 770 892 847 756 675 664 572
0 0 0 0 0 0 0 0 0 0 0 0 0 0 0 0 0 0 0 0 0 0 0 0 0 7 275 697 1394 1244 1382 1322 1761 1683 1669 1602 1399 1028 1210 1384 1430 1372 989 1327 1238 1438 1436 1180 1081 900 913 999 925 1036 1068 990 970 983 1204 1728 1527 1714 1748 1712 1861 1845 1719 1785 1698 1565 1517 1431 1473 1190 978 1086 1016 928 742 672 810 784 355 430 487 368
0 0 0 0 0 0 0 0 0 0 0 0 0 0 0 0 0 0 0 0 0 0 0 0 0 0 91 299 1421 1363 1335 1259 1413 1253 1371 1717 1629 1382 1352 1537 1497 1336 1131 1390 1280 1662 1378 1128 969 839 1111 1083 924 947 856 1252 1586 1638 1629 1678 1788 1721 1638 1606 1701 1647 1551 1427 1424 1291 1408 1392 1352 1112 822 796 757 800 669 699 616 534 511 288 277 208
0 0 0 0 0 0 0 0 0 0 0 0 0 0 0 0 0 0 0 0 0 0 0 0 0 0 135 104 1384 1458 1287 1186 1232 1262 1319 1627 1759 1546 1578 1656 1550 1337 1408 1450 1035 1464 1468 1051 869 884 974 950 746 887 904 1186 1573 1601 1576 1312 1340 1320 1289 1532 1435 1432 1522 1431 1422 1354 1210 1202 1102 938 818 789 679 689 685 553 497 439 188 76 53 48
0 0 0 0 0 0 0 0 0 0 0 0 0 0 0 0 0 0 0 0 0 0 0 0 0 0 0 123 1081 1300 1120 1284 1290 1228 1263 1354 1666 1815 1680 1882 1704 1626 1497 1522 1187 1430 1354 1072 769 788 852 810 804 854 924 982 979 1132 1087 1146 1246 1293 1327 1320 1353 1342 1403 1420 1225 1118 978 881 714 679 759 499 486 589 509 363 283 166 66 26 14 8
0 0 0 0 0 0 0 0 0 0 0 0 0 0 0 0 0 0 0 0 0 0 0 0 0 0 0 347 949 1057 675 1006 1356 1233 1258 1478 1513 1773 1779 2032 1540 1795 1714 1488 1568 1430 1207 969 806 672 777 790 709 732 859 856 880 802 1009 1036 1000 905 844 950 1070 1069 1099 1080 954 691 814 739 635 490 522 625 528 526 477 267 100 51 7 8 8 8
0 0 0 0 0 0 0 0 0 0 0 0 0 0 0 0 0 0 0 0 0 0 0 0 0 0 0 80 240 800 531 630 969 1350 1372 1362 1488 1422 1526 1630 1443 1805 1706 1604 1509 1119 991 909 774 620 725 774 532 712 790 728 743 631 616 559 600 561 459 549 668 585 428 420 498 570 557 524 622 576 510 454 301 257 195 87 7 16 9 11 11 8
0 0 0 0 0 0 0 0 0 0 0 0 0 0 0 0 0 0 0 0 0 0 0 0 0 0 0 8 36 239 493 638 828 1341 1439 1294 1494 1627 1548 1687 1610 1144 1592 1536 1117 909 1000 804 846 801 718 694 645 775 728 817 612 597 547 510 494 452 401 390 407 370 280 281 451 372 359 259 228 202 217 191 36 13 9 5 6 6 6 6 8 8
0 0 0 0 0 0 0 0 0 0 0 0 0 0 0 0 0 0 0 0 0 0 0 0 0 0 0 0 53 238 389 518 704 945 1510 1541 1552 1716 1649 1850 2018 1905 1792 1312 1203 1044 1076 875 717 670 678 827 806 767 728 723 666 635 498 410 406 414 392 371 391 352 369 328 326 34 14 10 7 7 6 6 7 5 4 5 5 6 4 7 5 7
0 0 0 0 0 0 0 0 0 0 0 0 0 0 0 0 0 0 0 0 0 0 0 0 0 0 0 0 0 225 326 188 538 666 1232 1626 1662 1617 1642 2134 2087 1541 1396 1205 1188 1012 1049 805 691 762 830 727 805 785 817 715 592 515 468 428 413 404 380 420 384 219 6 144 331 330 344 99 4 5 6 4 4 5 6 5 5 5 5 4 5 5
0 0 0 0 0 0 0 0 0 0 0 0 0 0 0 0 0 0 0 0 0 0 0 0 0 0 0 6 14 18 77 109 284 779 1342 1659 1627 1389 1793 2166 1609 1296 1204 1242 1184 883 832 690 634 758 744 805 788 759 742 637 562 487 386 324 323 346 337 182 2 3 3 325 346 348 324 316 274 4 5 3 3 4 5 4 4 4 4 3 4 4
0 0 0 0 0 0 0 0 0 0 0 0 0 0 0 0 0 0 0 0 0 0 0 0 0 0 0 328 1013 1460 1414 586 616 1039 1635 1654 1642 1969 1785 1589 1344 1343 1317 1190 1045 919 818 338 709 664 710 817 752 717 564 462 406 336 283 148 2 1 3 3 2 1 3 290 347 329 296 5 5 3 3 3 5 5 5 5 4 4 6 5 4 6
0 0 0 0 0 0 0 0 0 0 0 0 0 0 0 0 0 0 0 0 0 0 0 0 0 2 549 717 942 1224 1096 1100 782 1290 1465 1390 1626 1754 1552 1343 1302 1309 1285 1246 1112 1018 927 865 683 649 732 766 693 638 518 424 341 305 272 1 1 1 2 1 2 2 4 269 306 234 6 6 5 3 4 4 4 4 5 5 5 4 5 6 6 5
0 0 0 0 0 0 0 0 0 0 0 0 0 0 0 0 0 0 0 0 0 0 0 0 0 12 5 166 625 1016 1054 1044 1176 1400 1417 1418 1823 1567 1446 1361 1350 1319 1260 1247 1311 1205 1030 807 646 612 712 618 485 453 542 528 404 316 269 242 0 1 2 1 3 3 3 4 3 4 5 5 4 3 3 3 3 4 2 4 2 4 2 3 3 2
0 0 0 0 0 0 0 0 0 0 0 0 0 0 0 0 0 0 0 0 0 0 0 0 0 0 0 394 290 640 733 1013 1240 1456 1404 1393 1682 1456 1274 1356 1349 1293 1223 1282 1361 1246 983 802 584 554 532 542 489 349 268 444 462 328 274 251 2 2 1 2 2 3 3 4 3 116 4 4 4 3 2 1 0 0 0 0 0 0 0 2 0 1
0 0 0 0 0 0 0 0 0 0 0 0 0 0 0 0 0 0 0 0 0 0 0 0 0 0 0 806 290 422 956 956 1232 1389 1313 1332 1464 1518 1201 1204 1155 1130 1144 1205 1244 1094 851 668 454 270 506 531 514 331 145 82 342 359 342 306 102 2 2 3 3 2 3 2 177 80 3 2 0 0 0 0 0 0 0 0 0 0 0 0 0 0
0 0 0 0 0 0 0 0 0 0 0 0 0 0 0 0 0 0 0 0 0 0 0 0 3 0 0 46 116 596 1044 1164 1358 1411 1395 1323 1365 1461 1130 1003 1018 1006 1049 1212 1059 971 897 687 508 499 178 551 538 155 26 0 66 269 335 349 236 0 0 1 3 2 125 269 254 144 4 3 0 0 0 0 0 0 0 0 0 0 0 0 0 0
0 0 0 0 0 0 0 0 0 0 0 0 0 0 0 0 0 0 0 0 0 0 0 0 0 14 14 14 27 64 1186 1578 1599 1582 1551 1059 1438 1225 1078 972 1014 1015 1004 1184 1165 1053 915 744 565 702 732 583 395 209 0 0 22 241 199 250 227 0 0 0 0 271 352 296 288 4 4 2 0 0 0 0 0 0 0 0 0 0 0 0 0 0
0 0 0 0 0 0 0 0 0 0 0 0 0 0 0 0 0 0 0 0 0 0 0 0 0 0 558 174 7 1 1238 1580 1610 1699 1303 1382 1412 1182 1019 1021 1075 999 1111 1260 1202 1028 899 763 690 501 380 413 311 250 232 280 280 314 297 1 0 3 0 0 0 85 343 379 276 4 3 4 0 0 1 0 0 0 0 0 0 0 0 0 0 0
0 0 0 0 0 0 0 0 0 0 0 0 0 0 0 0 0 0 0 0 0 0 0 0 0 243 291 1487 1686 1722 1594 1685 1690 1619 1453 1387 1148 1032 996 930 975 958 1120 1257 1197 1019 880 781 638 537 385 311 342 354 345 293 291 392 345 114 0 0 0 0 0 255 348 334 284 4 2 0 0 0 0 0 0 0 0 0 0 0 0 0 0 0
0 0 0 0 0 0 0 0 0 0 0 0 0 0 0 0 0 0 0 0 0 0 0 0 0 0 937 844 1220 1279 1302 1292 1335 1234 1303 1095 1036 974 863 829 985 1041 1042 1153 1116 1008 891 746 653 537 318 384 341 321 340 293 52 96 184 143 84 0 0 0 1 260 311 337 118 1 0 0 0 0 0 0 0 0 0 0 0 0 0 0 0 0
0 0 0 0 0 0 0 0 0 0 0 0 0 0 0 0 0 0 0 0 0 0 0 0 0 748 1038 806 744 1067 977 1238 1266 1228 1060 1016 957 965 918 847 1017 1105 1099 1031 1017 915 775 741 692 523 367 316 237 224 115 163 211 136 181 158 236 266 264 218 48 289 320 219 40 0 0 0 0 0 0 0 0 0 0 0 0 0 0 0 0 0
0 0 0 0 0 0 0 0 0 0 0 0 0 0 0 0 0 0 0 0 0 0 0 0 0 685 1137 673 864 789 949 1284 1256 1066 884 926 916 869 904 878 870 971 992 967 959 866 766 724 702 625 482 385 132 236 222 163 172 133 67 81 249 287 268 258 261 272 84 52 0 0 0 0 0 0 0 0 0 0 0 0 0 0 0 0 0 0
0 0 0 0 0 0 0 0 0 0 0 0 0 0 0 0 0 0 0 0 0 0 0 0 0 104 782 887 950 868 853 1164 919 742 687 802 799 830 857 842 799 815 903 978 969 895 815 776 731 649 546 499 477 426 280 286 171 246 98 53 155 268 242 179 187 0 0 0 0 0 0 0 0 0 0 0 0 0 0 0 0 0 0 0 0 0
0 0 0 0 0 0 0 0 0 0 0 0 0 0 0 0 0 0 0 0 0 0 0 0 0 0 340 1077 1080 1173 1042 1144 1002 664 653 676 702 724 747 787 817 864 904 967 931 831 752 769 696 587 544 488 440 306 276 244 193 130 113 205 252 266 209 140 0 0 0 0 0 0 0 0 0 0 0 0 0 0 0 0 0 0 0 0 0 0
0 0 0 0 2 0 0 0 0 0 0 0 0 0 0 0 0 0 0 0 0 0 0 3 0 0 0 9 892 1250 1210 1027 849 520 591 564 694 801 735 722 802 834 833 880 944 857 800 740 494 559 508 439 247 249 232 231 166 140 118 205 237 233 168 105 0 0 0 0 0 0 0 0 0 0 0 0 0 0 0 0 0 0 0 0 0 0
0 0 0 0 0 0 5 3 0 0 0 0 0 0 0 0 0 0 0 0 0 0 0 0 0 0 852 661 398 1232 939 866 585 390 419 548 626 753 838 794 767 846 937 1030 1045 920 738 609 406 416 380 408 333 338 286 208 213 216 120 217 213 255 182 62 0 0 0 0 0 0 0 0 0 0 0 0 0 0 0 0 0 0 0 0 0 0
0 31 0 6 1 12 3 0 0 0 0 0 0 0 0 0 0 0 0 0 0 0 0 0 0 0 711 1241 1194 1068 790 577 497 349 346 464 499 603 775 832 836 894 978 970 938 797 568 208 238 429 397 364 358 316 285 325 334 120 113 226 264 239 165 48 3 0 0 0 0 0 0 0 0 0 0 0 0 0 0 0 0 0 0 0 0 0
0 7 0 3 0 4 5 0 0 0 0 0 0 0 0 0 0 0 0 0 0 0 0 0 0 0 693 1003 1036 806 568 460 399 267 372 387 428 482 625 763 792 880 828 780 726 617 251 299 250 314 380 372 363 392 400 327 139 162 123 206 202 139 86 36 6 0 0 0 0 0 0 0 0 0 0 0 0 0 0 0 0 0 0 0 0 0
0 2 5 4 0 2 8 15 16 0 0 0 593 511 0 0 0 0 0 0 0 0 0 0 0 0 992 994 786 808 572 518 604 423 414 444 450 558 598 640 664 645 606 627 520 305 392 276 246 314 307 372 411 386 309 117 256 92 130 191 162 104 56 26 2 0 0 0 0 0 0 0 0 0 0 0 0 0 0 0 0 0 0 0 0 0
0 0 10 9 0 3 7 81 6 0 0 443 101 232 56 123 58 0 0 2 0 0 46 0 0 46 1134 1026 905 935 827 713 543 300 274 422 505 550 661 676 617 532 571 559 590 256 298 286 337 203 233 369 317 214 294 308 268 4 80 153 154 71 10 0 0 0 0 0 0 0 0 0 0 0 0 0 0 0 0 0 0 0 0 0 0 0
0 0 4 1 1 3 6 13 0 1 184 124 183 50 52 11 54 10 0 0 9 35 26 0 0 0 608 887 961 931 709 388 460 258 86 214 451 613 675 695 636 564 567 591 572 336 182 306 222 227 287 300 253 255 370 185 68 42 82 140 116 37 0 0 0 0 0 0 0 0 0 0 0 0 0 0 0 0 0 0 0 0 0 0 0 0
0 0 0 6 9 4 1 7 4 74 112 434 114 224 3 185 48 0 0 0 0 2 0 0 0 128 606 946 754 489 406 379 212 100 53 76 359 530 624 671 637 537 581 475 301 158 300 311 271 254 254 211 167 169 83 74 94 88 100 94 64 6 15 0 0 0 0 0 0 0 0 0 0 0 0 0 0 0 0 0 0 0 0 0 0 0
7 4 0 0 0 0 0 11 6 4 0 60 233 706 233 587 434 95 0 0 0 8 3 0 158 744 891 613 416 315 267 116 33 14 14 210 272 442 478 602 610 586 369 222 233 342 321 293 325 336 286 198 98 28 59 92 78 67 47 45 27 22 10 0 0 0 0 0 0 0 1 1 0 0 0 0 0 0 0 0 0 0 0 0 0 0
0 1 18 1 13 0 0 8 14 3 22 432 568 547 442 252 378 245 7 0 206 166 21 7 481 859 662 459 255 152 163 107 66 14 32 220 289 380 501 563 673 676 392 391 357 335 378 403 393 328 180 68 15 35 49 40 16 15 17 7 10 4 0 0 0 0 0 0 0 0 0 0 0 0 0 0 0 0 0 0 0 0 0 0 0 0
3 0 0 0 0 0 3 6 6 5 1 276 398 439 276 323 183 336 0 0 552 379 168 190 474 789 571 361 240 234 292 269 271 161 28 269 345 436 498 534 631 574 445 241 416 461 388 289 174 92 102 92 33 23 16 0 9 8 16 1 0 0 0 0 0 0 0 0 0 0 0 0 0 0 0 0 0 0 0 0 0 0 0 0 0 0
3 0 0 8 7 3 1 10 1 2 132 280 345 355 230 222 317 35 1 276 597 556 333 405 666 742 492 324 234 293 532 679 660 321 116 243 368 379 407 501 539 505 346 271 326 125 233 215 138 136 115 35 19 13 7 10 9 6 2 0 0 0 0 0 0 0 0 0 0 0 0 0 0 0 0 0 0 0 0 0 0 0 0 0 0 0
29 10 0 5 16 10 0 2 4 3 466 385 319 325 247 298 113 31 440 0 313 649 537 560 706 711 568 376 362 516 580 387 318 184 11 232 431 385 472 504 486 173 298 309 482 444 374 285 160 84 21 5 6 21 14 6 6 6 1 0 0 0 0 0 0 0 0 0 0 0 0 0 0 0 0 0 0 0 0 0 0 0 0 0 0 0
19 5 2 2 7 2 5 15 5 5 79 439 404 273 282 362 141 212 411 431 229 646 604 657 780 705 496 432 392 388 253 258 183 58 1 259 399 456 535 590 602 531 460 574 538 503 481 380 237 21 0 0 20 36 24 11 11 9 4 0 0 0 0 0 0 0 0 0 0 0 0 0 0 0 0 0 0 0 0 0 0 0 0 0 0 0
37 14 1 0 0 5 2 0 5 104 434 371 421 302 272 406 239 197 402 637 433 688 710 694 464 447 397 320 158 155 182 157 108 2 0 252 431 509 628 697 652 362 559 554 551 510 455 326 100 0 2 18 37 29 14 25 23 17 7 0 0 0 0 0 0 0 0 0 0 0 0 0 0 0 0 0 0 0 0 0 0 0 0 0 0 0
188 51 1 0 2 8 3 16 627 305 426 423 393 333 370 109 43 73 368 288 460 546 560 457 418 236 268 243 160 119 143 156 58 48 164 294 511 641 616 637 606 440 532 526 444 294 151 37 0 0 19 30 35 15 3 0 14 9 2 0 0 0 0 0 0 0 0 0 0 0 0 0 0 0 0 0 0 0 0 0 0 0 0 0 0 0
297 197 218 200 28 292 130 120 190 88 190 342 40 13 11 42 8 85 285 501 329 435 348 386 313 304 205 126 129 105 112 91 130 140 200 321 570 608 567 491 310 431 430 341 242 104 92 18 0 6 13 26 18 4 0 0 1 3 0 0 0 0 0 0 0 0 0 0 0 0 0 0 0 0 0 0 0 0 0 0 0 0 0 0 0 0
342 92 139 51 253 40 118 251 301 275 119 49 55 18 5 0 32 79 308 410 305 240 232 244 226 147 145 134 84 51 38 89 143 172 278 400 584 599 526 528 352 385 298 203 132 54 1 0 0 6 3 1 0 0 0 0 0 0 0 0 0 0 0 0 0 0 0 0 0 0 0 0 0 0 0 0 0 0 0 0 0 0 0 0 0 0
192 153 352 332 200 14 152 304 115 0 6 0 0 14 78 113 30 59 256 418 285 209 177 146 77 26 98 84 100 38 101 117 155 261 353 447 547 505 509 476 381 274 250 178 78 17 0 0 5 2 0 0 0 0 0 0 0 0 0 0 0 0 0 0 0 0 0 0 0 0 0 0 0 0 0 0 0 0 0 0 0 0 0 0 0 0
331 44 122 232 120 344 59 51 0 0 1 1 0 0 4 26 142 39 116 250 248 212 95 6 50 79 64 52 59 89 116 140 45 257 407 477 507 520 540 456 211 233 231 99 48 15 13 8 6 0 0 0 0 0 0 0 0 0 0 0 0 0 0 0 0 0 0 0 0 0 0 0 0 0 0 0 0 0 0 0 0 0 0 0 0 0
165 211 328 242 221 191 63 322 176 218 271 365 33 11 1 0 68 126 83 190 170 101 7 23 4 5 0 14 23 75 50 60 14 246 414 487 522 572 379 334 327 283 163 79 35 10 8 2 1 1 0 0 0 0 0 0 0 0 0 0 0 0 0 0 0 0 0 0 0 0 0 0 0 0 0 0 0 0 0 0 0 0 0 0 0 0
320 483 271 22 58 24 464 209 340 238 310 342 258 4 0 0 36 106 130 114 100 10 13 2 1 0 0 9 45 18 80 153 177 324 465 532 373 396 478 475 391 276 166 41 15 9 0 0 0 0 0 0 0 0 0 0 0 0 0 0 0 0 0 0 0 0 0 0 0 0 0 0 0 0 0 0 0 0 0 0 0 0 0 0 0 0
Wind_Speed
nan nan nan nan nan nan nan nan nan nan nan nan nan nan nan nan nan nan nan nan nan nan nan nan nan nan nan 19 21 26 42 48 47 44 45 35 28 30 34 34 32 31 34 33 33 31 29 27 29 26 24 30 29 23 21 20 20 20 21 20 18 16 15 15 14 13 14 14 15 16 17 17 16 17 17 16 15 15 15 15 14 14 14 15 15 15
nan nan nan nan nan nan nan nan nan nan nan nan nan nan nan nan nan nan nan nan nan nan nan nan nan nan nan 21 24 30 39 38 36 37 35 29 18 18 26 31 28 31 32 29 22 16 22 32 30 20 22 24 26 22 20 23 19 19 20 18 17 14 14 13 13 14 14 15 15 16 16 15 15 15 16 17 17 17 16 16 16 16 16 16 17 16
nan nan nan nan nan nan nan nan nan nan nan nan nan nan nan nan nan nan nan nan nan nan nan nan nan nan nan 27 30 33 36 30 28 29 31 32 22 19 25 25 25 25 25 25 19 19 28 24 20 19 21 24 27 23 22 23 18 19 19 17 15 14 15 14 14 14 16 16 17 16 17 15 17 17 18 19 18 18 18 18 17 17 17 17 17 18
nan nan nan nan nan nan nan nan nan nan nan nan nan nan nan nan nan nan nan nan nan nan nan nan nan nan 38 40 37 33 34 27 27 31 29 28 24 22 24 20 19 19 23 23 20 23 29 31 26 26 28 26 24 25 23 18 20 20 19 19 18 16 16 16 18 18 20 20 19 19 18 18 18 18 19 20 19 18 18 19 18 17 17 18 18 17
nan nan nan nan nan nan nan nan nan nan nan nan nan nan nan nan nan nan nan nan nan nan nan nan nan 29 27 30 34 31 30 27 28 32 30 25 22 22 25 22 21 21 20 20 20 23 25 30 34 29 15 16 19 23 22 20 19 18 16 17 18 18 17 18 19 20 20 19 20 20 20 19 19 19 18 17 18 17 18 18 18 18 17 18 18 17
nan nan nan nan nan nan nan nan nan nan nan nan nan nan nan nan nan nan nan nan nan nan nan nan nan nan 26 24 31 30 27 25 26 26 27 25 23 19 20 23 23 22 16 15 21 25 27 30 32 24 16 17 20 21 21 22 19 19 19 20 21 20 19 19 20 19 17 17 18 18 18 18 17 18 16 16 16 17 17 18 17 17 16 17 17 17
nan nan nan nan nan nan nan nan nan nan nan nan nan nan nan nan nan nan nan nan nan nan nan nan nan nan nan 25 30 29 25 27 26 23 25 23 21 17 16 22 23 20 16 15 21 24 28 28 26 21 20 24 25 26 24 25 27 26 26 25 24 22 21 21 20 19 19 20 20 20 18 17 17 17 16 17 18 18 17 17 16 17 18 17 18 19
nan nan nan nan nan nan nan nan nan nan nan nan nan nan nan nan nan nan nan nan nan nan nan nan nan nan 28 25 30 28 26 28 25 22 23 21 18 14 14 19 21 18 15 17 22 24 27 26 24 24 23 22 24 25 25 27 28 28 29 27 26 25 25 24 23 23 22 21 21 22 21 20 20 18 19 19 18 17 16 16 16 16 17 nan nan nan
nan nan nan nan nan nan nan nan nan nan nan nan nan nan nan nan nan nan nan nan nan nan nan nan nan nan nan 33 32 28 27 26 23 20 19 19 14 12 13 16 18 16 13 17 21 23 28 30 30 31 28 30 23 26 28 30 31 31 30 30 29 28 27 26 26 25 25 24 22 20 19 18 17 18 17 16 16 16 16 17 17 16 nan nan nan nan
nan nan nan nan nan nan nan nan nan nan nan nan nan nan nan nan nan nan nan nan nan nan nan nan nan nan nan 39 31 28 25 23 21 18 17 16 14 12 13 15 17 16 15 17 21 27 34 40 41 32 28 30 25 28 31 32 32 32 31 30 30 29 27 26 27 26 26 24 22 20 19 17 16 14 15 15 17 16 15 18 16 nan nan nan nan nan
nan nan nan nan nan nan nan nan nan nan nan nan nan nan nan nan nan nan nan nan nan nan nan nan nan nan nan nan 31 27 22 21 20 19 19 18 15 13 13 15 18 18 19 19 23 31 39 45 42 32 30 32 28 24 26 29 29 29 29 29 30 28 26 26 26 25 24 21 18 17 17 16 16 16 15 16 17 16 17 nan nan nan nan nan nan nan
nan nan nan nan nan nan nan nan nan nan nan nan nan nan nan nan nan nan nan nan nan nan nan nan nan nan nan nan nan 30 25 21 21 18 19 18 16 14 14 16 19 19 19 22 25 33 39 41 37 32 31 31 28 21 24 25 26 26 26 27 28 27 26 25 24 22 20 18 18 18 19 18 18 16 16 17 nan nan nan nan nan nan nan nan nan nan
nan nan nan nan nan nan nan nan nan nan nan nan nan nan nan nan nan nan nan nan nan nan nan nan nan nan nan nan nan 33 26 24 21 18 19 18 17 15 14 17 19 20 22 23 28 33 37 40 35 34 31 28 21 20 22 24 24 24 24 25 26 25 24 22 20 18 18 18 18 nan nan nan nan nan nan nan nan nan nan nan nan nan nan nan nan nan
nan nan nan nan nan nan nan nan nan nan nan nan nan nan nan nan nan nan nan nan nan nan nan nan nan nan nan nan nan 32 25 24 22 18 18 19 19 18 17 19 22 23 23 24 31 34 37 36 32 32 29 23 20 21 22 24 25 25 25 25 27 25 22 21 20 20 nan 20 20 20 20 nan nan nan nan nan nan nan nan nan nan nan nan nan nan nan
nan nan nan nan nan nan nan nan nan nan nan nan nan nan nan nan nan nan nan nan nan nan nan nan nan nan nan nan nan nan nan 27 24 24 26 24 20 20 21 21 26 27 25 29 34 34 36 35 29 28 27 22 20 23 25 25 26 26 25 25 26 25 25 24 nan nan nan 22 22 21 20 20 19 nan nan nan nan nan nan nan nan nan nan nan nan nan
nan nan nan nan nan nan nan nan nan nan nan nan nan nan nan nan nan nan nan nan nan nan nan nan nan nan nan 53 49 44 40 30 27 29 30 25 26 28 24 24 25 25 26 30 34 33 32 33 28 26 27 23 20 23 26 28 26 26 26 26 nan nan nan nan nan nan nan 23 22 22 22 nan nan nan nan nan nan nan nan nan nan nan nan nan nan nan
nan nan nan nan nan nan nan nan nan nan nan nan nan nan nan nan nan nan nan nan nan nan nan nan nan nan 52 47 46 39 38 34 30 32 28 27 27 25 25 25 25 24 27 30 33 30 31 30 26 25 27 25 22 23 26 27 27 27 26 nan nan nan nan nan nan nan nan 22 23 23 nan nan nan nan nan nan nan nan nan nan nan nan nan nan nan nan
nan nan nan nan nan nan nan nan nan nan nan nan nan nan nan nan nan nan nan nan nan nan nan nan nan nan nan 45 44 40 35 36 33 30 27 26 26 26 27 26 22 23 27 30 30 27 25 23 24 28 28 25 24 25 26 27 26 25 24 23 nan nan nan nan nan nan nan nan nan nan nan nan nan nan nan nan nan nan nan nan nan nan nan nan nan nan
nan nan nan nan nan nan nan nan nan nan nan nan nan nan nan nan nan nan nan nan nan nan nan nan nan nan nan 45 43 38 33 33 32 29 28 25 24 26 27 24 23 26 28 27 26 25 24 21 22 29 32 31 30 27 25 25 25 25 24 23 nan nan nan nan nan nan nan nan nan 23 nan nan nan nan nan nan nan nan nan nan nan nan nan nan nan nan
nan nan nan nan nan nan nan nan nan nan nan nan nan nan nan nan nan nan nan nan nan nan nan nan nan nan nan 45 40 38 32 30 29 28 24 22 21 23 25 23 24 26 26 26 26 26 25 24 25 30 34 34 33 30 26 nan 25 26 25 24 23 nan nan nan nan nan nan nan 25 nan nan nan nan nan nan nan nan nan nan nan nan nan nan nan nan nan
nan nan nan nan nan nan nan nan nan nan nan nan nan nan nan nan nan nan nan nan nan nan nan nan nan nan nan nan 39 37 33 30 27 24 22 21 21 24 24 23 24 25 26 26 27 28 27 28 31 33 34 34 33 28 nan nan nan 24 24 24 23 nan nan nan nan nan 27 27 27 27 nan nan nan nan nan nan nan nan nan nan nan nan nan nan nan nan
nan nan nan nan nan nan nan nan nan nan nan nan nan nan nan nan nan nan nan nan nan nan nan nan nan nan nan nan nan nan 33 30 25 23 24 24 23 28 25 25 25 26 27 28 30 31 30 31 33 32 32 33 31 27 nan nan nan 27 25 25 25 nan nan nan nan 28 29 28 28 nan nan nan nan nan nan nan nan nan nan nan nan nan nan nan nan nan
nan nan nan nan nan nan nan nan nan nan nan nan nan nan nan nan nan nan nan nan nan nan nan nan nan nan 46 41 nan nan 34 29 28 29 29 27 26 29 28 29 27 27 27 28 30 31 32 33 33 31 32 32 30 30 31 29 29 27 25 nan nan nan nan nan nan nan 30 30 30 nan nan nan nan nan nan nan nan nan nan nan nan nan nan nan nan nan
nan nan nan nan nan nan nan nan nan nan nan nan nan nan nan nan nan nan nan nan nan nan nan nan nan 50 43 41 46 40 38 35 34 30 31 31 29 28 32 30 28 27 25 27 29 30 31 33 33 30 29 30 32 34 34 33 31 27 24 23 nan nan nan nan nan 30 32 32 32 nan nan nan nan nan nan nan nan nan nan nan nan nan nan nan nan nan
nan nan nan nan nan nan nan nan nan nan nan nan nan nan nan nan nan nan nan nan nan nan nan nan nan nan 46 40 39 36 35 34 32 30 30 31 27 29 31 30 27 26 26 26 28 30 30 29 30 28 26 30 34 36 37 36 nan nan 23 23 nan nan nan nan nan 29 31 32 33 nan nan nan nan nan nan nan nan nan nan nan nan nan nan nan nan nan
nan nan nan nan nan nan nan nan nan nan nan nan nan nan nan nan nan nan nan nan nan nan nan nan nan 51 47 40 36 34 33 33 32 33 35 31 29 29 29 28 26 25 24 26 27 27 26 25 26 28 29 30 32 34 35 34 30 26 24 25 26 29 30 29 nan 29 30 31 nan nan nan nan nan nan nan nan nan nan nan nan nan nan nan nan nan nan
nan nan nan nan nan nan nan nan nan nan nan nan nan nan nan nan nan nan nan nan nan nan nan nan nan 46 43 39 36 31 30 31 31 32 33 32 30 28 28 27 25 24 26 26 27 26 26 26 28 30 30 30 31 32 32 29 27 26 nan nan 27 28 29 30 30 30 nan nan nan nan nan nan nan nan nan nan nan nan nan nan nan nan nan nan nan nan
nan nan nan nan nan nan nan nan nan nan nan nan nan nan nan nan nan nan nan nan nan nan nan nan nan 40 39 36 36 31 27 29 27 29 31 31 30 29 28 28 27 26 27 27 28 30 30 31 33 34 33 33 32 32 30 28 25 25 nan nan 27 28 28 29 30 nan nan nan nan nan nan nan nan nan nan nan nan nan nan nan nan nan nan nan nan nan
nan nan nan nan nan nan nan nan nan nan nan nan nan nan nan nan nan nan nan nan nan nan nan nan nan nan 36 34 33 28 27 25 26 28 31 32 32 31 30 29 28 27 27 28 29 30 33 35 36 37 37 35 32 30 29 27 26 25 26 27 28 28 29 29 nan nan nan nan nan nan nan nan nan nan nan nan nan nan nan nan nan nan nan nan nan nan
nan nan nan nan nan nan nan nan nan nan nan nan nan nan nan nan nan nan nan nan nan nan nan nan nan nan nan nan 30 30 33 32 31 31 34 34 31 30 30 30 29 27 26 27 29 32 34 36 38 38 36 32 29 26 25 25 26 26 26 26 27 28 29 30 nan nan nan nan nan nan nan nan nan nan nan nan nan nan nan nan nan nan nan nan nan nan
nan nan nan nan nan nan nan nan nan nan nan nan nan nan nan nan nan nan nan nan nan nan nan nan nan nan 44 38 32 38 37 36 34 30 30 32 32 31 30 29 28 27 26 28 32 34 36 37 37 35 31 27 25 24 24 25 26 26 27 28 29 31 32 nan nan nan nan nan nan nan nan nan nan nan nan nan nan nan nan nan nan nan nan nan nan nan
nan nan nan nan nan nan nan nan nan nan nan nan nan nan nan nan nan nan nan nan nan nan nan nan nan nan 40 38 40 38 36 35 31 28 29 28 29 30 28 26 25 25 27 30 34 38 40 38 35 32 29 24 22 22 23 25 27 28 29 31 33 33 34 nan nan nan nan nan nan nan nan nan nan nan nan nan nan nan nan nan nan nan nan nan nan nan
nan nan nan nan nan nan nan nan nan nan nan nan nan nan nan nan nan nan nan nan nan nan nan nan nan nan 40 36 35 33 29 28 27 26 26 25 25 27 26 25 24 26 29 35 38 38 39 37 32 29 26 21 20 21 24 27 29 30 32 34 36 36 nan nan nan nan nan nan nan nan nan nan nan nan nan nan nan nan nan nan nan nan nan nan nan nan
nan nan nan nan nan nan nan nan nan nan nan nan 40 42 nan nan nan nan nan nan nan nan nan nan nan nan 36 33 30 29 22 19 20 22 25 26 26 25 25 25 26 32 36 35 34 36 35 32 27 24 21 20 21 23 25 28 31 nan 35 37 38 38 nan nan nan nan nan nan nan nan nan nan nan nan nan nan nan nan nan nan nan nan nan nan nan nan
nan nan nan nan nan nan nan nan nan nan nan 43 38 43 nan 45 nan nan nan nan nan nan nan nan nan nan 32 29 27 25 25 24 23 26 27 28 28 27 25 24 30 34 34 33 31 32 32 29 26 24 23 23 25 26 27 30 34 nan nan 39 39 nan nan nan nan nan nan nan nan nan nan nan nan nan nan nan nan nan nan nan nan nan nan nan nan nan
nan nan nan nan nan nan nan nan nan nan 39 35 36 nan nan nan nan nan nan nan nan nan nan nan nan nan 28 32 35 35 31 29 29 26 nan 29 29 28 25 24 27 30 31 31 35 34 30 26 25 25 26 27 27 26 28 32 nan nan nan 38 40 nan nan nan nan nan nan nan nan nan nan nan nan nan nan nan nan nan nan nan nan nan nan nan nan nan
nan nan nan nan nan nan nan nan nan nan 30 29 30 26 nan 30 nan nan nan nan nan nan nan nan nan 30 32 37 39 36 36 35 31 28 nan nan 27 26 24 24 28 32 38 38 35 29 24 24 25 27 28 27 27 28 nan nan nan nan 40 nan nan nan nan nan nan nan nan nan nan nan nan nan nan nan nan nan nan nan nan nan nan nan nan nan nan nan
nan nan nan nan nan nan nan nan nan nan nan nan 23 30 24 33 34 nan nan nan nan nan nan nan 30 33 36 39 39 37 38 36 nan nan nan 26 25 24 25 29 32 36 35 34 29 26 24 24 27 27 28 28 nan nan nan nan nan nan nan nan nan nan nan nan nan nan nan nan nan nan nan nan nan nan nan nan nan nan nan nan nan nan nan nan nan nan
nan nan nan nan nan nan nan nan nan nan nan 27 25 27 25 28 29 34 nan nan 30 28 nan nan 31 33 35 39 37 37 34 30 nan nan nan 25 25 28 31 33 35 35 36 34 32 31 28 28 28 29 29 nan nan nan nan nan nan nan nan nan nan nan nan nan nan nan nan nan nan nan nan nan nan nan nan nan nan nan nan nan nan nan nan nan nan nan
nan nan nan nan nan nan nan nan nan nan nan 24 24 23 25 24 27 25 nan nan 27 26 28 27 28 32 34 34 33 30 28 27 22 21 nan 24 26 28 32 32 32 33 35 35 33 30 31 32 31 nan 31 nan nan nan nan nan nan nan nan nan nan nan nan nan nan nan nan nan nan nan nan nan nan nan nan nan nan nan nan nan nan nan nan nan nan nan
nan nan nan nan nan nan nan nan nan nan 24 25 25 24 25 25 24 nan nan 31 30 25 26 25 25 27 29 29 27 25 21 28 27 28 28 27 26 27 29 30 31 33 33 32 32 33 33 31 31 32 33 nan nan nan nan nan nan nan nan nan nan nan nan nan nan nan nan nan nan nan nan nan nan nan nan nan nan nan nan nan nan nan nan nan nan nan
nan nan nan nan nan nan nan nan nan nan 26 27 27 25 23 25 23 nan 30 nan 23 20 22 21 22 24 25 23 23 25 27 30 34 32 nan 32 32 31 34 36 37 37 35 36 36 35 33 32 33 nan nan nan nan nan nan nan nan nan nan nan nan nan nan nan nan nan nan nan nan nan nan nan nan nan nan nan nan nan nan nan nan nan nan nan nan nan
nan nan nan nan nan nan nan nan nan nan nan 20 29 25 25 26 27 28 28 27 23 22 20 21 22 24 23 25 24 28 33 29 30 nan nan 37 36 34 35 37 37 37 36 35 32 31 32 32 35 nan nan nan nan nan nan nan nan nan nan nan nan nan nan nan nan nan nan nan nan nan nan nan nan nan nan nan nan nan nan nan nan nan nan nan nan nan
nan nan nan nan nan nan nan nan nan 23 21 18 22 27 19 30 31 30 29 27 24 22 21 22 21 20 22 23 24 28 31 30 27 nan nan 34 36 37 38 37 34 32 31 30 30 31 33 35 36 nan nan nan nan nan nan nan nan nan nan nan nan nan nan nan nan nan nan nan nan nan nan nan nan nan nan nan nan nan nan nan nan nan nan nan nan nan
17 nan nan nan nan nan nan nan 23 23 21 18 26 35 36 34 nan nan 31 29 25 24 22 22 20 19 17 20 25 27 29 26 nan nan 25 28 31 32 32 30 29 28 28 29 31 33 34 nan nan nan nan nan nan nan nan nan nan nan nan nan nan nan nan nan nan nan nan nan nan nan nan nan nan nan nan nan nan nan nan nan nan nan nan nan nan nan
21 20 21 16 nan 22 22 20 20 nan 19 19 nan nan nan nan nan nan 28 27 28 25 22 21 21 18 21 24 25 28 27 nan 24 25 26 25 25 28 30 29 28 27 29 32 34 34 nan nan nan nan nan nan nan nan nan nan nan nan nan nan nan nan nan nan nan nan nan nan nan nan nan nan nan nan nan nan nan nan nan nan nan nan nan nan nan nan
16 nan 19 nan 16 nan 17 16 15 17 17 nan nan nan nan nan nan nan 27 27 25 23 21 19 19 25 23 24 nan nan nan nan 26 26 27 24 23 26 28 28 27 29 31 33 33 nan nan nan nan nan nan nan nan nan nan nan nan nan nan nan nan nan nan nan nan nan nan nan nan nan nan nan nan nan nan nan nan nan nan nan nan nan nan nan nan nan
12 16 20 18 16 nan 19 15 15 nan nan nan nan nan nan 24 nan nan 26 25 24 22 21 24 nan nan nan nan nan nan 30 28 28 27 26 25 26 28 28 29 31 31 30 32 nan nan nan nan nan nan nan nan nan nan nan nan nan nan nan nan nan nan nan nan nan nan nan nan nan nan nan nan nan nan nan nan nan nan nan nan nan nan nan nan nan nan
21 nan 22 20 20 18 nan nan nan nan nan nan nan nan nan nan 25 nan 24 23 23 23 nan nan nan nan nan nan nan nan 32 29 nan 28 28 27 31 30 30 30 31 31 30 nan nan nan nan nan nan nan nan nan nan nan nan nan nan nan nan nan nan nan nan nan nan nan nan nan nan nan nan nan nan nan nan nan nan nan nan nan nan nan nan nan nan nan
20 21 24 22 20 18 nan 13 9 12 13 11 nan nan nan nan nan 23 nan 23 24 24 nan nan nan nan nan nan nan nan nan nan nan 28 28 30 31 32 32 32 31 31 31 nan nan nan nan nan nan nan nan nan nan nan nan nan nan nan nan nan nan nan nan nan nan nan nan nan nan nan nan nan nan nan nan nan nan nan nan nan nan nan nan nan nan nan
26 28 24 nan nan nan 22 17 15 17 14 20 19 nan nan nan nan 21 21 21 nan nan nan nan nan nan nan nan nan nan nan 32 30 31 33 32 31 31 31 33 33 31 33 nan nan nan nan nan nan nan nan nan nan nan nan nan nan nan nan nan nan nan nan nan nan nan nan nan nan nan nan nan nan nan nan nan nan nan nan nan nan nan nan nan nan nan
Wind_Direction
nan nan nan nan nan nan nan nan nan nan nan nan nan nan nan nan nan nan nan nan nan nan nan nan nan nan nan 225 231 238 242 237 238 248 249 246 235 223 237 237 227 225 224 230 227 206 207 227 235 243 255 243 236 243 249 254 251 247 247 247 247 244 249 250 253 255 251 256 260 264 271 274 278 282 285 285 282 281 278 278 280 279 280 280 281 278
nan nan nan nan nan nan nan nan nan nan nan nan nan nan nan nan nan nan nan nan nan nan nan nan nan nan nan 227 232 237 245 237 248 256 260 273 269 231 241 247 242 235 229 235 244 245 225 223 230 227 238 248 248 237 242 247 240 246 247 244 245 239 249 245 252 253 252 253 258 266 269 270 273 280 282 282 280 279 279 279 279 278 277 276 276 275
nan nan nan nan nan nan nan nan nan nan nan nan nan nan nan nan nan nan nan nan nan nan nan nan nan nan nan 226 231 231 240 241 245 253 266 273 268 250 248 250 253 249 241 238 249 240 240 251 242 221 227 230 244 241 227 238 242 244 242 242 247 249 252 251 252 251 250 252 255 260 264 267 271 268 273 276 275 277 279 277 276 276 275 273 273 272
nan nan nan nan nan nan nan nan nan nan nan nan nan nan nan nan nan nan nan nan nan nan nan nan nan nan 229 223 227 230 238 241 245 250 262 264 270 257 264 268 265 268 263 265 266 251 245 243 240 233 218 222 229 239 236 236 239 238 238 243 251 249 247 248 249 244 248 253 257 257 261 267 270 273 277 279 280 280 281 281 279 279 278 274 274 272
nan nan nan nan nan nan nan nan nan nan nan nan nan nan nan nan nan nan nan nan nan nan nan nan nan 235 233 235 230 231 238 242 246 252 254 257 259 259 258 265 263 259 269 278 279 270 260 258 252 242 225 222 219 235 236 237 235 235 245 249 248 247 247 249 255 254 254 256 257 257 262 266 272 278 280 281 280 281 280 282 279 276 273 273 273 274
nan nan nan nan nan nan nan nan nan nan nan nan nan nan nan nan nan nan nan nan nan nan nan nan nan nan 239 241 237 235 235 239 246 251 257 261 262 267 275 280 274 265 274 280 287 283 275 267 254 249 234 241 238 243 246 245 252 252 254 254 253 249 249 253 258 259 256 257 258 265 267 268 269 269 269 269 269 278 277 277 281 277 272 272 274 274
nan nan nan nan nan nan nan nan nan nan nan nan nan nan nan nan nan nan nan nan nan nan nan nan nan nan nan 245 243 240 242 245 241 247 256 259 261 265 270 274 278 280 292 292 288 281 272 266 256 242 233 235 240 242 237 243 247 248 249 250 249 248 247 249 253 256 252 252 253 254 255 257 262 268 268 266 270 270 274 276 273 274 270 267 271 273
nan nan nan nan nan nan nan nan nan nan nan nan nan nan nan nan nan nan nan nan nan nan nan nan nan nan 239 242 248 247 247 248 243 244 254 255 261 269 272 274 279 286 300 300 292 279 268 264 260 260 249 238 235 240 241 242 242 246 246 246 245 244 243 243 245 244 241 243 244 249 251 254 261 264 269 273 274 278 277 275 271 272 274 nan nan nan
nan nan nan nan nan nan nan nan nan nan nan nan nan nan nan nan nan nan nan nan nan nan nan nan nan nan nan 245 250 250 248 249 248 247 253 261 266 270 278 276 284 290 295 286 284 278 264 258 265 277 264 243 231 237 234 239 239 242 245 245 244 242 243 243 241 239 237 239 244 250 256 261 262 265 273 276 277 278 274 273 274 275 nan nan nan nan
nan nan nan nan nan nan nan nan nan nan nan nan nan nan nan nan nan nan nan nan nan nan nan nan nan nan nan 246 243 246 245 251 252 254 256 260 268 272 274 281 288 284 279 279 277 265 256 256 261 270 260 243 232 225 226 236 238 238 240 243 245 244 242 242 240 238 238 241 243 246 251 262 271 274 275 273 272 272 275 275 276 nan nan nan nan nan
nan nan nan nan nan nan nan nan nan nan nan nan nan nan nan nan nan nan nan nan nan nan nan nan nan nan nan nan 248 246 247 253 253 249 250 257 265 274 280 285 283 277 278 275 271 264 259 261 267 275 256 241 237 231 234 232 236 240 241 242 243 241 240 239 237 240 240 239 241 246 251 255 261 265 269 275 273 272 273 nan nan nan nan nan nan nan
nan nan nan nan nan nan nan nan nan nan nan nan nan nan nan nan nan nan nan nan nan nan nan nan nan nan nan nan nan 248 252 262 261 258 262 265 272 277 280 280 281 280 279 274 273 265 263 262 265 261 247 240 245 234 235 238 241 240 238 240 240 235 235 236 237 240 241 242 243 245 249 255 257 261 265 265 nan nan nan nan nan nan nan nan nan nan
nan nan nan nan nan nan nan nan nan nan nan nan nan nan nan nan nan nan nan nan nan nan nan nan nan nan nan nan nan 246 249 258 256 251 262 270 273 277 281 275 269 270 270 266 269 266 266 263 259 253 245 243 233 228 230 239 239 240 241 241 244 239 233 237 241 241 240 244 249 nan nan nan nan nan nan nan nan nan nan nan nan nan nan nan nan nan
nan nan nan nan nan nan nan nan nan nan nan nan nan nan nan nan nan nan nan nan nan nan nan nan nan nan nan nan nan 243 243 249 255 251 257 265 268 273 272 266 264 261 263 271 269 267 269 266 262 259 254 251 247 238 236 239 239 240 241 241 244 245 241 239 238 240 nan 248 254 257 260 nan nan nan nan nan nan nan nan nan nan nan nan nan nan nan
nan nan nan nan nan nan nan nan nan nan nan nan nan nan nan nan nan nan nan nan nan nan nan nan nan nan nan nan nan nan nan 244 248 246 243 247 254 256 259 262 264 264 266 269 267 272 282 283 275 261 252 250 252 245 243 240 241 241 242 245 247 248 248 246 nan nan nan 248 251 255 258 262 266 nan nan nan nan nan nan nan nan nan nan nan nan nan
nan nan nan nan nan nan nan nan nan nan nan nan nan nan nan nan nan nan nan nan nan nan nan nan nan nan nan 229 230 229 234 239 247 251 249 252 252 253 258 264 260 261 263 267 267 272 276 275 270 256 246 246 254 252 240 239 240 242 242 243 nan nan nan nan nan nan nan 247 249 251 254 nan nan nan nan nan nan nan nan nan nan nan nan nan nan nan
nan nan nan nan nan nan nan nan nan nan nan nan nan nan nan nan nan nan nan nan nan nan nan nan nan nan 229 234 233 233 237 241 247 251 254 257 262 260 260 258 257 261 263 265 269 270 277 275 267 255 254 250 256 255 247 243 243 245 246 nan nan nan nan nan nan nan nan 247 250 251 nan nan nan nan nan nan nan nan nan nan nan nan nan nan nan nan
nan nan nan nan nan nan nan nan nan nan nan nan nan nan nan nan nan nan nan nan nan nan nan nan nan nan nan 234 238 237 238 244 248 252 258 262 265 257 254 255 260 266 265 268 272 276 277 274 266 260 259 259 260 263 255 248 247 246 247 251 nan nan nan nan nan nan nan nan nan nan nan nan nan nan nan nan nan nan nan nan nan nan nan nan nan nan
nan nan nan nan nan nan nan nan nan nan nan nan nan nan nan nan nan nan nan nan nan nan nan nan nan nan nan 237 244 243 244 247 251 256 263 268 269 262 256 259 263 264 264 270 274 270 267 268 269 267 264 261 270 278 265 254 252 249 249 253 nan nan nan nan nan nan nan nan nan 263 nan nan nan nan nan nan nan nan nan nan nan nan nan nan nan nan
nan nan nan nan nan nan nan nan nan nan nan nan nan nan nan nan nan nan nan nan nan nan nan nan nan nan nan 236 248 252 250 255 256 259 266 275 277 267 256 260 264 265 266 269 270 267 262 262 264 267 267 265 271 276 267 nan 253 252 252 258 260 nan nan nan nan nan nan nan 263 nan nan nan nan nan nan nan nan nan nan nan nan nan nan nan nan nan
nan nan nan nan nan nan nan nan nan nan nan nan nan nan nan nan nan nan nan nan nan nan nan nan nan nan nan nan 246 252 252 254 258 262 263 265 267 264 259 260 262 263 264 266 265 266 266 261 259 261 262 265 266 266 nan nan nan 254 254 259 259 nan nan nan nan nan 261 262 265 267 nan nan nan nan nan nan nan nan nan nan nan nan nan nan nan nan
nan nan nan nan nan nan nan nan nan nan nan nan nan nan nan nan nan nan nan nan nan nan nan nan nan nan nan nan nan nan 253 254 259 265 259 260 263 258 254 255 257 256 260 263 261 266 266 266 267 266 265 266 265 260 nan nan nan 259 256 257 259 nan nan nan nan 263 264 264 265 nan nan nan nan nan nan nan nan nan nan nan nan nan nan nan nan nan
nan nan nan nan nan nan nan nan nan nan nan nan nan nan nan nan nan nan nan nan nan nan nan nan nan nan 235 236 nan nan 246 253 256 251 253 252 255 251 250 251 253 258 259 259 262 265 269 270 269 269 270 269 264 260 264 268 268 263 259 nan nan nan nan nan nan nan 266 266 266 nan nan nan nan nan nan nan nan nan nan nan nan nan nan nan nan nan
nan nan nan nan nan nan nan nan nan nan nan nan nan nan nan nan nan nan nan nan nan nan nan nan nan 229 230 235 229 230 240 241 245 252 255 254 250 246 253 254 258 260 260 263 264 267 272 272 266 265 268 262 256 258 263 268 269 266 264 265 nan nan nan nan nan 264 263 265 267 nan nan nan nan nan nan nan nan nan nan nan nan nan nan nan nan nan
nan nan nan nan nan nan nan nan nan nan nan nan nan nan nan nan nan nan nan nan nan nan nan nan nan nan 237 235 235 234 241 247 251 254 259 259 254 252 253 254 256 261 263 267 271 276 279 275 266 264 269 266 260 262 265 268 nan nan 273 272 nan nan nan nan nan 268 266 267 268 nan nan nan nan nan nan nan nan nan nan nan nan nan nan nan nan nan
nan nan nan nan nan nan nan nan nan nan nan nan nan nan nan nan nan nan nan nan nan nan nan nan nan 233 237 241 242 239 240 248 251 255 255 256 259 255 253 255 260 263 264 268 271 277 283 276 266 266 267 267 267 268 271 271 270 271 275 274 271 270 269 270 nan 271 270 269 nan nan nan nan nan nan nan nan nan nan nan nan nan nan nan nan nan nan
nan nan nan nan nan nan nan nan nan nan nan nan nan nan nan nan nan nan nan nan nan nan nan nan nan 236 238 242 247 249 244 253 254 257 256 257 257 253 251 253 257 259 263 268 272 273 274 273 272 270 269 267 271 272 270 275 274 274 nan nan 275 271 269 270 271 271 nan nan nan nan nan nan nan nan nan nan nan nan nan nan nan nan nan nan nan nan
nan nan nan nan nan nan nan nan nan nan nan nan nan nan nan nan nan nan nan nan nan nan nan nan nan 235 237 239 245 252 250 252 252 254 253 254 255 252 252 251 252 256 260 262 268 273 277 279 277 277 275 273 271 271 270 275 277 283 nan nan 280 275 273 272 273 nan nan nan nan nan nan nan nan nan nan nan nan nan nan nan nan nan nan nan nan nan
nan nan nan nan nan nan nan nan nan nan nan nan nan nan nan nan nan nan nan nan nan nan nan nan nan nan 235 238 245 254 260 257 252 251 250 251 249 249 249 252 254 257 262 265 269 271 277 280 281 277 270 266 269 271 274 279 284 287 288 285 281 278 278 278 nan nan nan nan nan nan nan nan nan nan nan nan nan nan nan nan nan nan nan nan nan nan
nan nan nan nan nan nan nan nan nan nan nan nan nan nan nan nan nan nan nan nan nan nan nan nan nan nan nan nan 235 243 246 245 246 249 251 254 254 253 253 254 254 259 262 267 270 273 273 275 274 267 260 260 267 275 280 283 287 288 287 285 283 282 282 282 nan nan nan nan nan nan nan nan nan nan nan nan nan nan nan nan nan nan nan nan nan nan
nan nan nan nan nan nan nan nan nan nan nan nan nan nan nan nan nan nan nan nan nan nan nan nan nan nan 223 223 230 237 242 243 248 255 260 262 261 257 255 258 257 259 263 266 269 268 266 262 266 260 256 258 265 272 279 281 282 284 284 284 286 285 285 nan nan nan nan nan nan nan nan nan nan nan nan nan nan nan nan nan nan nan nan nan nan nan
nan nan nan nan nan nan nan nan nan nan nan nan nan nan nan nan nan nan nan nan nan nan nan nan nan nan 228 227 233 236 240 249 256 260 263 264 269 267 266 261 262 263 260 263 264 264 262 258 256 254 255 261 271 278 279 280 282 283 283 285 287 287 285 nan nan nan nan nan nan nan nan nan nan nan nan nan nan nan nan nan nan nan nan nan nan nan
nan nan nan nan nan nan nan nan nan nan nan nan nan nan nan nan nan nan nan nan nan nan nan nan nan nan 234 236 239 238 242 247 254 261 266 273 278 276 272 269 262 257 259 256 254 259 258 257 253 251 257 272 278 279 282 283 283 282 283 286 287 287 nan nan nan nan nan nan nan nan nan nan nan nan nan nan nan nan nan nan nan nan nan nan nan nan
nan nan nan nan nan nan nan nan nan nan nan nan 213 208 nan nan nan nan nan nan nan nan nan nan nan nan 238 240 242 246 249 251 256 258 261 267 270 273 271 269 259 246 248 255 257 261 260 258 258 258 267 277 280 281 280 281 281 nan 282 284 285 284 nan nan nan nan nan nan nan nan nan nan nan nan nan nan nan nan nan nan nan nan nan nan nan nan
nan nan nan nan nan nan nan nan nan nan nan 217 212 214 nan 214 nan nan nan nan nan nan nan nan nan nan 239 238 240 242 242 241 243 253 258 262 264 266 270 268 255 259 264 266 267 266 264 262 267 274 279 280 282 280 280 281 281 nan nan 281 281 nan nan nan nan nan nan nan nan nan nan nan nan nan nan nan nan nan nan nan nan nan nan nan nan nan
nan nan nan nan nan nan nan nan nan nan 217 217 216 nan nan nan nan nan nan nan nan nan nan nan nan nan 228 232 233 235 237 238 240 245 nan 261 264 267 268 261 261 266 262 260 262 258 257 268 281 286 281 278 283 283 282 283 nan nan nan 280 280 nan nan nan nan nan nan nan nan nan nan nan nan nan nan nan nan nan nan nan nan nan nan nan nan nan
nan nan nan nan nan nan nan nan nan nan 216 219 216 217 nan 218 nan nan nan nan nan nan nan nan nan 228 234 239 240 239 241 241 241 240 nan nan 263 265 269 264 263 253 253 254 254 257 266 277 278 276 276 279 279 281 nan nan nan nan 282 nan nan nan nan nan nan nan nan nan nan nan nan nan nan nan nan nan nan nan nan nan nan nan nan nan nan nan
nan nan nan nan nan nan nan nan nan nan nan nan 217 218 217 209 214 nan nan nan nan nan nan nan 234 239 243 245 246 249 250 246 nan nan nan 261 268 267 258 265 259 254 257 259 263 268 277 279 273 274 275 277 nan nan nan nan nan nan nan nan nan nan nan nan nan nan nan nan nan nan nan nan nan nan nan nan nan nan nan nan nan nan nan nan nan nan
nan nan nan nan nan nan nan nan nan nan nan 210 223 217 219 215 218 220 nan nan 227 235 nan nan 236 242 248 253 257 260 253 248 nan nan nan 264 267 268 269 267 264 265 266 273 281 285 283 274 273 273 276 nan nan nan nan nan nan nan nan nan nan nan nan nan nan nan nan nan nan nan nan nan nan nan nan nan nan nan nan nan nan nan nan nan nan nan
nan nan nan nan nan nan nan nan nan nan nan 210 216 217 218 215 216 214 nan nan 233 244 244 241 244 248 248 255 263 263 257 248 255 258 nan 268 270 273 271 272 274 273 272 276 279 280 272 271 274 nan 284 nan nan nan nan nan nan nan nan nan nan nan nan nan nan nan nan nan nan nan nan nan nan nan nan nan nan nan nan nan nan nan nan nan nan nan
nan nan nan nan nan nan nan nan nan nan 210 210 214 222 219 218 210 nan nan 211 210 226 243 247 250 253 253 256 257 252 251 232 239 260 265 265 271 270 267 271 272 275 277 274 270 269 268 273 280 285 284 nan nan nan nan nan nan nan nan nan nan nan nan nan nan nan nan nan nan nan nan nan nan nan nan nan nan nan nan nan nan nan nan nan nan nan
nan nan nan nan nan nan nan nan nan nan 210 214 219 224 222 217 207 nan 215 nan 204 219 228 236 246 252 254 256 244 232 237 236 257 266 nan 262 261 259 260 264 266 262 259 266 269 270 272 278 283 nan nan nan nan nan nan nan nan nan nan nan nan nan nan nan nan nan nan nan nan nan nan nan nan nan nan nan nan nan nan nan nan nan nan nan nan nan
nan nan nan nan nan nan nan nan nan nan nan 224 234 223 206 199 204 209 210 216 203 218 229 228 232 237 240 239 234 230 241 250 263 nan nan 254 257 260 260 263 262 262 263 267 267 271 276 279 281 nan nan nan nan nan nan nan nan nan nan nan nan nan nan nan nan nan nan nan nan nan nan nan nan nan nan nan nan nan nan nan nan nan nan nan nan nan
nan nan nan nan nan nan nan nan nan 202 221 237 237 211 214 205 209 206 204 214 212 216 230 231 232 236 237 233 232 236 242 250 259 nan nan 256 254 252 251 251 252 255 258 265 271 274 275 276 279 nan nan nan nan nan nan nan nan nan nan nan nan nan nan nan nan nan nan nan nan nan nan nan nan nan nan nan nan nan nan nan nan nan nan nan nan nan
213 nan nan nan nan nan nan nan 211 203 217 226 206 207 209 211 nan nan 205 208 213 218 224 227 234 239 237 236 231 233 238 245 nan nan 267 264 258 254 251 248 248 251 257 262 267 274 278 nan nan nan nan nan nan nan nan nan nan nan nan nan nan nan nan nan nan nan nan nan nan nan nan nan nan nan nan nan nan nan nan nan nan nan nan nan nan nan
199 187 180 182 nan 199 193 204 203 nan 205 207 nan nan nan nan nan nan 202 205 209 214 219 221 235 239 238 238 232 229 235 nan 252 254 259 261 255 247 242 243 248 255 264 269 275 280 nan nan nan nan nan nan nan nan nan nan nan nan nan nan nan nan nan nan nan nan nan nan nan nan nan nan nan nan nan nan nan nan nan nan nan nan nan nan nan nan
200 nan 185 nan 192 nan 167 198 195 200 198 nan nan nan nan nan nan nan 204 201 210 215 220 221 234 240 241 235 nan nan nan nan 248 254 256 252 251 249 251 259 263 268 272 277 281 nan nan nan nan nan nan nan nan nan nan nan nan nan nan nan nan nan nan nan nan nan nan nan nan nan nan nan nan nan nan nan nan nan nan nan nan nan nan nan nan nan
194 185 169 167 171 nan 168 184 187 nan nan nan nan nan nan 207 nan nan 204 207 213 219 222 232 nan nan nan nan nan nan 236 242 252 253 250 251 249 252 258 263 267 268 275 281 nan nan nan nan nan nan nan nan nan nan nan nan nan nan nan nan nan nan nan nan nan nan nan nan nan nan nan nan nan nan nan nan nan nan nan nan nan nan nan nan nan nan
185 nan 152 155 145 160 nan nan nan nan nan nan nan nan nan nan 209 nan 215 218 224 229 nan nan nan nan nan nan nan nan 236 240 nan 252 253 251 251 254 257 261 266 272 277 nan nan nan nan nan nan nan nan nan nan nan nan nan nan nan nan nan nan nan nan nan nan nan nan nan nan nan nan nan nan nan nan nan nan nan nan nan nan nan nan nan nan nan
159 149 159 151 148 152 nan 168 183 172 188 212 nan nan nan nan nan 215 nan 218 221 228 nan nan nan nan nan nan nan nan nan nan nan 251 255 248 249 254 259 264 271 279 283 nan nan nan nan nan nan nan nan nan nan nan nan nan nan nan nan nan nan nan nan nan nan nan nan nan nan nan nan nan nan nan nan nan nan nan nan nan nan nan nan nan nan nan
156 169 161 nan nan nan 184 185 185 184 196 198 203 nan nan nan nan 208 211 216 nan nan nan nan nan nan nan nan nan nan nan 240 247 249 250 248 252 256 264 272 275 277 279 nan nan nan nan nan nan nan nan nan nan nan nan nan nan nan nan nan nan nan nan nan nan nan nan nan nan nan nan nan nan nan nan nan nan nan nan nan nan nan nan nan nan nan